| time (UTC) | temp C | wind direction | speed KPH | gust KPH | rain 1hr cm | rain 24hr cm | rain mn cm | humidity % | barometer mb |
| 20260509064532 | 11 | 202 | 0.0 | 4.8 | 0.00 | 0.03 | 0.00 | 86 | 1006.1 |
| 20260509063034 | 11 | 246 | 1.6 | 4.8 | 0.00 | 0.03 | 0.00 | 86 | 1006.4 |
| 20260509061540 | 11 | 206 | 3.2 | 8.0 | 0.00 | 0.03 | 0.00 | 85 | 1006.3 |
| 20260509060031 | 11 | 231 | 0.0 | 9.7 | 0.00 | 0.03 | 0.00 | 84 | 1006.6 |
| 20260509054530 | 11 | 218 | 0.0 | 6.4 | 0.00 | 0.03 | 0.00 | 83 | 1006.8 |
| 20260509053049 | 11 | 194 | 1.6 | 6.4 | 0.00 | 0.03 | 0.00 | 83 | 1006.8 |
| 20260509051527 | 11 | 163 | 3.2 | 8.0 | 0.00 | 0.03 | 0.00 | 82 | 1006.8 |
| 20260509050032 | 11 | 192 | 0.0 | 6.4 | 0.00 | 0.03 | 0.00 | 81 | 1006.9 |
| 20260509044533 | 12 | 190 | 0.0 | 4.8 | 0.00 | 0.03 | 0.00 | 80 | 1007.1 |
| 20260509043033 | 12 | 0 | 0.0 | 8.0 | 0.00 | 0.03 | 0.00 | 79 | 1007.1 |
| 20260509041528 | 12 | 183 | 0.0 | 8.0 | 0.00 | 0.03 | 0.00 | 79 | 1007.2 |
| 20260509040030 | 12 | 173 | 1.6 | 6.4 | 0.00 | 0.03 | 0.00 | 78 | 1007.3 |
| 20260509034534 | 12 | 151 | 0.0 | 9.7 | 0.00 | 0.03 | 0.03 | 78 | 1007.3 |
| 20260509033029 | 13 | 213 | 0.0 | 11.3 | 0.00 | 0.03 | 0.03 | 78 | 1007.6 |
| 20260509031533 | 12 | 0 | 1.6 | 8.0 | 0.00 | 0.03 | 0.03 | 79 | 1007.6 |
| 20260509030030 | 13 | 0 | 0.0 | 9.7 | 0.00 | 0.03 | 0.03 | 79 | 1007.5 |
| 20260509024530 | 12 | 182 | 1.6 | 8.0 | 0.00 | 0.03 | 0.03 | 79 | 1007.7 |
| 20260509023032 | 13 | 0 | 0.0 | 3.2 | 0.00 | 0.03 | 0.03 | 78 | 1007.7 |
| 20260509021528 | 13 | 0 | 0.0 | 0.0 | 0.00 | 0.03 | 0.03 | 77 | 1007.7 |
| 20260509020036 | 13 | 0 | 0.0 | 1.6 | 0.00 | 0.03 | 0.03 | 75 | 1007.7 |
| 20260509014534 | 13 | 0 | 0.0 | 3.2 | 0.00 | 0.03 | 0.03 | 74 | 1007.7 |
| 20260509013028 | 14 | 0 | 0.0 | 0.0 | 0.00 | 0.03 | 0.03 | 71 | 1007.6 |
| 20260509011528 | 14 | 0 | 0.0 | 0.0 | 0.00 | 0.03 | 0.03 | 69 | 1007.6 |
| 20260509010028 | 15 | 0 | 0.0 | 0.0 | 0.00 | 0.03 | 0.03 | 66 | 1007.5 |
| 20260509004536 | 15 | 0 | 0.0 | 3.2 | 0.00 | 0.23 | 0.03 | 64 | 1007.3 |
| 20260509003033 | 16 | 198 | 0.0 | 3.2 | 0.00 | 0.23 | 0.03 | 60 | 1007.3 |
| 20260509001528 | 16 | 0 | 1.6 | 8.0 | 0.00 | 0.23 | 0.03 | 57 | 1007.1 |
| 20260509000028 | 16 | 251 | 0.0 | 6.4 | 0.00 | 0.23 | 0.03 | 54 | 1007.1 |
| 20260508234528 | 16 | 153 | 1.6 | 8.0 | 0.00 | 0.23 | 0.03 | 53 | 1007.1 |
| 20260508233030 | 17 | 249 | 3.2 | 14.5 | 0.00 | 0.23 | 0.03 | 54 | 1007.2 |
| 20260508231529 | 17 | 0 | 0.0 | 12.9 | 0.00 | 0.23 | 0.03 | 54 | 1007.2 |
| 20260508230032 | 17 | 0 | 1.6 | 9.7 | 0.00 | 0.23 | 0.03 | 54 | 1007.3 |
| 20260508224532 | 17 | 0 | 1.6 | 11.3 | 0.00 | 0.23 | 0.03 | 56 | 1007.2 |
| 20260508223039 | 17 | 54 | 4.8 | 9.7 | 0.00 | 0.23 | 0.03 | 56 | 1007.3 |
| 20260508221532 | 17 | 180 | 4.8 | 14.5 | 0.00 | 0.23 | 0.03 | 55 | 1007.4 |
| 20260508220032 | 17 | 298 | 3.2 | 11.3 | 0.00 | 0.23 | 0.03 | 57 | 1007.4 |
| 20260508214528 | 17 | 199 | 4.8 | 16.1 | 0.00 | 0.23 | 0.03 | 60 | 1007.3 |
| 20260508213030 | 17 | 222 | 1.6 | 9.7 | 0.00 | 0.23 | 0.03 | 56 | 1007.5 |
| 20260508211538 | 17 | 236 | 3.2 | 12.9 | 0.00 | 0.23 | 0.03 | 57 | 1007.6 |
| 20260508210030 | 16 | 242 | 4.8 | 12.9 | 0.00 | 0.23 | 0.03 | 58 | 1007.9 |
| 20260508204528 | 16 | 162 | 8.0 | 14.5 | 0.00 | 0.23 | 0.03 | 57 | 1008.1 |
| 20260508203028 | 16 | 212 | 1.6 | 12.9 | 0.00 | 0.23 | 0.03 | 61 | 1008.1 |
| 20260508201526 | 16 | 173 | 4.8 | 17.7 | 0.00 | 0.23 | 0.03 | 61 | 1008.4 |
| 20260508200030 | 16 | 201 | 4.8 | 14.5 | 0.00 | 0.23 | 0.03 | 59 | 1008.6 |
| 20260508194531 | 16 | 230 | 3.2 | 16.1 | 0.00 | 0.23 | 0.03 | 59 | 1008.8 |
| 20260508193034 | 17 | 259 | 6.4 | 17.7 | 0.00 | 0.23 | 0.03 | 58 | 1008.9 |
| 20260508191537 | 16 | 271 | 3.2 | 19.3 | 0.00 | 0.23 | 0.03 | 61 | 1009.0 |
| 20260508190032 | 16 | 216 | 6.4 | 12.9 | 0.00 | 0.23 | 0.03 | 60 | 1009.4 |
| 20260508184531 | 16 | 178 | 6.4 | 17.7 | 0.00 | 0.23 | 0.03 | 61 | 1009.7 |
| 20260508183033 | 16 | 170 | 6.4 | 17.7 | 0.00 | 0.23 | 0.03 | 60 | 1009.8 |
| 20260508181528 | 16 | 190 | 6.4 | 16.1 | 0.00 | 0.23 | 0.03 | 58 | 1009.9 |
| 20260508180028 | 16 | 111 | 4.8 | 14.5 | 0.00 | 0.23 | 0.03 | 53 | 1010.0 |
| 20260508174529 | 16 | 196 | 3.2 | 17.7 | 0.00 | 0.23 | 0.03 | 47 | 1010.3 |
| 20260508173027 | 16 | 51 | 1.6 | 17.7 | 0.00 | 0.23 | 0.03 | 52 | 1010.6 |
| 20260508171535 | 16 | 185 | 6.4 | 12.9 | 0.00 | 0.23 | 0.03 | 48 | 1010.9 |
| 20260508170030 | 15 | 252 | 1.6 | 12.9 | 0.00 | 0.23 | 0.03 | 54 | 1010.9 |
| 20260508164528 | 15 | 263 | 6.4 | 12.9 | 0.00 | 0.23 | 0.03 | 54 | 1011.1 |
| 20260508163035 | 15 | 175 | 3.2 | 12.9 | 0.00 | 0.23 | 0.03 | 47 | 1011.2 |
| 20260508161532 | 15 | 248 | 1.6 | 14.5 | 0.00 | 0.23 | 0.03 | 60 | 1011.5 |
| 20260508160028 | 14 | 246 | 1.6 | 8.0 | 0.00 | 0.23 | 0.03 | 59 | 1011.6 |
| 20260508154530 | 13 | 269 | 1.6 | 11.3 | 0.00 | 0.23 | 0.03 | 68 | 1011.6 |
| 20260508153034 | 12 | 163 | 3.2 | 11.3 | 0.00 | 0.23 | 0.03 | 68 | 1011.6 |
| 20260508151530 | 12 | 222 | 0.0 | 6.4 | 0.00 | 0.23 | 0.03 | 76 | 1011.6 |
| 20260508150030 | 12 | 279 | 1.6 | 6.4 | 0.00 | 0.23 | 0.03 | 79 | 1011.8 |
| 20260508144529 | 11 | 188 | 3.2 | 8.0 | 0.00 | 0.23 | 0.03 | 82 | 1011.6 |
| 20260508143027 | 10 | 167 | 3.2 | 12.9 | 0.00 | 0.23 | 0.03 | 85 | 1011.7 |
| 20260508141530 | 10 | 138 | 4.8 | 16.1 | 0.00 | 0.23 | 0.03 | 86 | 1011.9 |
| 20260508140029 | 10 | 165 | 0.0 | 11.3 | 0.00 | 0.23 | 0.03 | 88 | 1012.0 |
| 20260508134531 | 10 | 242 | 1.6 | 9.7 | 0.00 | 0.23 | 0.03 | 92 | 1012.0 |
| 20260508133028 | 9 | 218 | 3.2 | 8.0 | 0.00 | 0.23 | 0.03 | 93 | 1012.1 |
| 20260508131531 | 8 | 0 | 0.0 | 6.4 | 0.00 | 0.23 | 0.03 | 93 | 1011.9 |
| 20260508130031 | 7 | 235 | 0.0 | 4.8 | 0.00 | 0.23 | 0.03 | 94 | 1011.9 |
| 20260508124530 | 7 | 0 | 0.0 | 6.4 | 0.00 | 0.23 | 0.03 | 94 | 1011.9 |
| 20260508123028 | 7 | 0 | 0.0 | 3.2 | 0.00 | 0.23 | 0.03 | 94 | 1012.0 |
| 20260508121527 | 6 | 183 | 0.0 | 4.8 | 0.00 | 0.23 | 0.03 | 94 | 1011.9 |
| 20260508120036 | 6 | 0 | 0.0 | 1.6 | 0.00 | 0.23 | 0.03 | 94 | 1011.7 |
| 20260508114530 | 5 | 0 | 0.0 | 1.6 | 0.00 | 0.23 | 0.03 | 94 | 1011.7 |
| 20260508113030 | 5 | 0 | 0.0 | 3.2 | 0.00 | 0.23 | 0.03 | 94 | 1011.5 |
| 20260508111531 | 4 | 0 | 0.0 | 0.0 | 0.00 | 0.23 | 0.03 | 94 | 1011.5 |
| 20260508110029 | 3 | 0 | 0.0 | 3.2 | 0.00 | 0.23 | 0.03 | 93 | 1011.4 |
| 20260508104528 | 3 | 0 | 0.0 | 0.0 | 0.00 | 0.23 | 0.03 | 93 | 1011.2 |
| 20260508103030 | 3 | 0 | 0.0 | 0.0 | 0.00 | 0.23 | 0.03 | 93 | 1011.2 |
| 20260508101530 | 4 | 0 | 0.0 | 0.0 | 0.00 | 0.23 | 0.03 | 93 | 1011.2 |
| 20260508100027 | 5 | 0 | 0.0 | 0.0 | 0.00 | 0.23 | 0.03 | 93 | 1011.3 |
| 20260508094530 | 5 | 0 | 0.0 | 3.2 | 0.00 | 0.23 | 0.03 | 94 | 1011.1 |
| 20260508093031 | 4 | 0 | 0.0 | 0.0 | 0.00 | 0.23 | 0.03 | 93 | 1011.2 |
| 20260508091531 | 5 | 0 | 0.0 | 3.2 | 0.00 | 0.23 | 0.03 | 93 | 1011.3 |
| 20260508090028 | 5 | 0 | 0.0 | 3.2 | 0.00 | 0.23 | 0.03 | 93 | 1011.3 |
| 20260508084530 | 5 | 0 | 0.0 | 4.8 | 0.00 | 0.23 | 0.03 | 93 | 1011.3 |
| 20260508083028 | 5 | 217 | 0.0 | 3.2 | 0.00 | 0.23 | 0.03 | 93 | 1011.3 |
| 20260508081539 | 5 | 0 | 0.0 | 0.0 | 0.00 | 0.23 | 0.03 | 93 | 1011.3 |
| 20260508080027 | 5 | 163 | 1.6 | 3.2 | 0.00 | 0.23 | 0.03 | 93 | 1011.3 |
| 20260508074529 | 5 | 0 | 0.0 | 0.0 | 0.03 | 0.23 | 0.03 | 93 | 1011.4 |
| 20260508073029 | 5 | 0 | 0.0 | 0.0 | 0.03 | 0.23 | 0.03 | 93 | 1011.4 |
| 20260508071528 | 5 | 0 | 0.0 | 0.0 | 0.03 | 0.23 | 0.03 | 93 | 1011.4 |
| 20260508070031 | 5 | 0 | 0.0 | 0.0 | 0.03 | 0.23 | 0.03 | 92 | 1011.6 |